Location: Hilton Head Island
(32.2163°N, 80.7526°W)
Time: 14:41:17
(UTC-04:00)

Tiros 1 despin weight - Pass Details

Date: 17 February 2026
Orbit: 556 x 593 km, 48.2° (Epoch: 10 March)

Event Time Altitude Azimuth Distance (km) Brightness Sun altitude
Rises 21:54:01 0° 309° (NW) 2,735 - -47.4°
Reaches altitude 10° 21:56:16 10° 309° (NW) 1,842 - -47.8°
Maximum altitude 22:00:29 88° 220° (SW) 565 - -48.6°
Drops below altitude 10° 22:04:43 10° 131° (SE) 1,853 - -49.5°
Sets 22:06:59 0° 131° (SE) 2,754 - -49.9°
